Satellite-Ground Cal/Val Site Overpasses Predictions

Prediction of Satellite NPP Overpassing Cal/Val Site: Antarctic Dome C

Ground Cal/Val Site Location: Latitude: -75.10, Longitude: 123.35; Satellite-Ground Site NADIR distance within 100 km.

Table of predicted overpasses for the next 14.0 days since TLE Epoch: 9/19/2015
Interval Starting Time Ending Time Minimum Distance Time Minimum Distance (km)
1 09/21/2015 14:58:01 09/21/2015 14:58:29 09/21/2015 14:58:15 16.99
2 09/22/2015 14:39:18 09/22/2015 14:39:30 09/22/2015 14:39:24 89.93
3 09/23/2015 07:40:49 09/23/2015 07:41:16 09/23/2015 07:41:02 36.94
4 09/24/2015 07:22:01 09/24/2015 07:22:20 09/24/2015 07:22:11 73.30
5 09/26/2015 15:04:12 09/26/2015 15:04:37 09/26/2015 15:04:24 53.74
6 09/27/2015 14:45:22 09/27/2015 14:45:46 09/27/2015 14:45:34 55.37
7 09/28/2015 07:47:02 09/28/2015 07:47:22 09/28/2015 07:47:12 71.88
8 09/29/2015 07:28:07 09/29/2015 07:28:34 09/29/2015 07:28:21 36.21
9 10/01/2015 15:10:29 10/01/2015 15:10:40 10/01/2015 15:10:34 91.12


NCC Satellite Cal/Val Overpasses Prediction Service
